Location: Asheville, NC
(35.6000°N, 82.5500°W)
Time: 09:33:36
(UTC-04:00)

Vanguard 2 Rocket - Pass Details

Date: 13 March 2018
Orbit: 553 x 3328 km, 32.9° (Epoch: 24 June)

Event Time Altitude Azimuth Distance (km) Brightness Sun altitude
Rises 02:17:38 0° 263° (W) 4,779 - -56.2°
Reaches altitude 10° 02:22:24 10° 242° (WSW) 4,316 - -55.9°
Maximum altitude 02:28:36 15° 211° (SSW) 4,480 - -55.4°
Drops below altitude 10° 02:36:20 10° 181° (S) 5,545 - -54.8°
Sets 02:44:23 0° 163° (SSE) 7,019 - -54.1°
